Weather History for Newport, RI

Change the Weather History Date:

Thursday, January 3, 2013

  Actual Average Record
Temperature  
Mean Temperature 18 °F -  
Max Temperature 26 °F 39 °F 62 °F (2000)
Min Temperature 10 °F 25 °F 5 °F (2014)
Degree Days  
Heating Degree Days 48    
Moisture  
Dew Point 4 °F    
Average Humidity 52    
Maximum Humidity 65    
Minimum Humidity 28    
Precipitation  
Precipitation 0.00 in - - ()
Sea Level Pressure  
Sea Level Pressure 30.08 in    
Wind  
Wind Speed 9 mph (WNW)    
Max Wind Speed 13 mph    
Max Gust Speed 25 mph    
Visibility 10 miles    
Events      
Averages and records for this station are not official NWS values.
T = Trace of Precipitation, MM = Missing Value Source: NWS Daily Summary

Daily Weather History Graph

Daily Weather History Graph

Search for Another Location

Airport:

Trip Planner

Search our weather history database for the weather conditions in past years. The results will help you decide how hot, cold, wet, or windy it might be!

Date:

Astronomy

Jan. 03, 2013 Rise Set
Actual Time 7:11 AM EST 4:27 PM EST
Civil Twilight 6:40 AM EST 4:59 PM EST
Nautical Twilight 6:05 AM EST 5:33 PM EST
Astronomical Twilight 5:32 AM EST 6:07 PM EST
Moon 11:05 PM EST (1/3) 10:16 AM EST (1/3)
Length of Visible Light 10h 18m
Length of Day
9h 16m
Waning Gibbous, 65% of the Moon is Illuminated
Jan 3
Waning Gibbous
Jan 4
Last Quarter
Jan 11
New
Jan 18
First Quarter
Jan 26
Full

Hourly Weather History & Observations

Time (EST) Temp. Windchill Dew Point Humidity Pressure Visibility Wind Dir Wind Speed Gust Speed Precip Events Conditions
12:53 AM 19.0 °F 8.2 °F 9.0 °F 65% 30.10 in 10.0 mi NNW 9.2 mph - N/A   Clear
1:53 AM 18.0 °F 4.8 °F 7.0 °F 62% 30.12 in 10.0 mi NNW 12.7 mph 21.9 mph N/A   Clear
2:53 AM 16.0 °F 2.9 °F 5.0 °F 62% 30.12 in 10.0 mi NNW 11.5 mph 25.3 mph N/A   Clear
3:53 AM 14.0 °F 0.5 °F 1.9 °F 59% 30.11 in 10.0 mi NW 11.5 mph 23.0 mph N/A   Clear
4:53 AM 12.9 °F -0.2 °F 1.0 °F 59% 30.11 in 10.0 mi NW 10.4 mph - N/A   Clear
5:53 AM 12.0 °F -2.0 °F -0.9 °F 56% 30.12 in 10.0 mi NW 11.5 mph - N/A   Clear
6:53 AM 10.9 °F -1.8 °F -0.9 °F 59% 30.12 in 10.0 mi NW 9.2 mph - N/A   Clear
7:53 AM 10.9 °F -3.4 °F -0.9 °F 59% 30.14 in 10.0 mi NW 11.5 mph - N/A   Clear
8:53 AM 12.9 °F -0.2 °F -0.9 °F 54% 30.14 in 10.0 mi NW 10.4 mph - N/A   Clear
9:53 AM 15.1 °F 2.5 °F 1.0 °F 54% 30.13 in 10.0 mi NW 10.4 mph - N/A   Clear
10:53 AM 17.1 °F 5.8 °F 1.0 °F 50% 30.12 in 10.0 mi WNW 9.2 mph - N/A   Clear
11:53 AM 19.9 °F 8.6 °F -0.9 °F 40% 30.09 in 10.0 mi WNW 10.4 mph - N/A   Clear
12:53 PM 21.9 °F 12.5 °F -2.0 °F 35% 30.05 in 10.0 mi NW 8.1 mph - N/A   Clear
1:53 PM 24.1 °F 16.0 °F -0.9 °F 34% 30.05 in 10.0 mi WNW 6.9 mph - N/A   Clear
2:53 PM 25.0 °F 14.8 °F -4.0 °F 28% 30.05 in 10.0 mi WNW 10.4 mph - N/A   Clear
3:53 PM 25.0 °F 16.3 °F 1.0 °F 36% 30.04 in 10.0 mi WNW 8.1 mph - N/A   Clear
4:53 PM 25.0 °F 16.3 °F 6.1 °F 45% 30.04 in 10.0 mi WNW 8.1 mph - N/A   Clear
5:53 PM 24.1 °F 15.2 °F 9.0 °F 53% 30.05 in 10.0 mi West 8.1 mph - N/A   Clear
6:53 PM 24.1 °F 17.0 °F 10.0 °F 55% 30.06 in 10.0 mi West 5.8 mph - N/A   Scattered Clouds
7:53 PM 25.0 °F 19.3 °F 10.9 °F 55% 30.06 in 10.0 mi West 4.6 mph - N/A   Overcast
8:53 PM 25.0 °F 19.3 °F 10.9 °F 55% 30.06 in 10.0 mi West 4.6 mph - N/A   Overcast
9:53 PM 25.0 °F - 12.0 °F 58% 30.06 in 10.0 mi Calm Calm - N/A   Overcast
10:53 PM 24.1 °F - 12.0 °F 60% 30.05 in 10.0 mi Calm Calm - N/A   Mostly Cloudy
11:53 PM 26.1 °F 21.9 °F 14.0 °F 60% 30.02 in 10.0 mi West 3.5 mph - N/A   Overcast